Regional Weather Roundup
Issued by NWS

Home | Current Version | Previous Version | Graphics & Text | Print | Product List | Glossary On
Versions: 1 2 3 4 5 6 7 8 9 10 11 12 13 14 15 16 17 18 19 20 21 22 23 24 25 26 27 28 29 30 31 32 33 34 35 36 37 38 39 40 41 42 43 44 45 46 47 48 49 50
000
ASUS43 KLSX 261859
RWRMO

WEATHER SUMMARY FOR MISSOURI
NATIONAL WEATHER SERVICE SPRINGFIELD MO
200 PM CDT THU MAR 26 2015

NOTE: "FAIR" INDICATES FEW OR NO CLOUDS BELOW 12,000 FEET WITH NO
       SIGNIFICANT WEATHER AND/OR OBSTRUCTIONS TO VISIBILITY.
       CURRENT SKY AND/OR WEATHER CONDITIONS ARE NOT AVAILABLE FOR
       CHILLICOTHE AND FARMINGTON.

MOZ001>031-035>038-043-044-053-054-262000-
...NORTHERN AND WESTERN MISSOURI...

CITY           SKY/WX    TMP DP  RH WIND       PRES   REMARKS
KANSAS CTY INT MOSUNNY   47  28  47 NW10      30.15F
KANSAS C DTWN  SUNNY     51  27  39 NW10G17   30.16F
LEE`S SUMMIT   SUNNY     48  26  42 NW10G21   30.15F
ST JOSEPH      SUNNY     47  27  45 NW8       30.16F
CHILLICOTHE      N/A     48  29  47 NW8       30.14F
KIRKSVILLE     SUNNY     47  22  37 NW9       30.10F

$$
MOZ066>068-077>081-088>096-101>105-262000-
...SOUTHWEST MISSOURI...

CITY           SKY/WX    TMP DP  RH WIND       PRES   REMARKS
SPRINGFIELD    SUNNY     49  30  48 N14       30.11F
JOPLIN         SUNNY     50  31  48 N13       30.16F

$$
MOZ032>034-039>042-045>050-055>058-069>072-262000-
...CENTRAL MISSOURI...

CITY           SKY/WX    TMP DP  RH WIND       PRES   REMARKS
COLUMBIA       SUNNY     47  29  49 NW9       30.09F
JEFFERSON CITY SUNNY     48  26  42 NW12      30.10F
ROLLA          SUNNY     45  30  55 MISG      30.06F
SEDALIA        MOSUNNY   48  32  53 N18       30.13F
OSAGE BEACH    SUNNY     48  28  46 N8        30.11S

$$
MOZ051-052-059>065-262000-
...EAST CENTRAL MISSOURI...

CITY           SKY/WX    TMP DP  RH WIND       PRES   REMARKS
ST LOUIS INTL  CLOUDY    47  31  53 NW13G26   30.07F
SPIRIT OF STL  PTSUNNY   47  28  47 NW14G22   30.07F
ST CHARLES     PTSUNNY   46  30  53 NW14      30.06F

$$
MOZ072>076-082>087-097>100-106>115-262000-
...SOUTH CENTRAL AND SOUTHEAST MISSOURI...

CITY           SKY/WX    TMP DP  RH WIND       PRES   REMARKS
CAPE GIRARDEAU CLOUDY    42  35  76 N15       30.05S
FARMINGTON     CLOUDY    43  32  65 N9G16     30.07S
POPLAR BLUFF   CLOUDY    45  37  73 N15       30.03S
WEST PLAINS    PTSUNNY   46  32  58 MISG      30.07S

$$



USA.gov is the U.S. government's official web portal to all federal, state and local government web resources and services.